Powrót do katalogu

STARLINK-1304

AktywnyŁącznośćVLEO
NORAD 45376·PAYLOAD·🇺🇸 United States

Wystrzelony Mar 18, 2020 z Cape Canaveral Space Force Station

Loading…

Następne Przeloty (najbliższe 24 godziny)

TLE

ŚwieżeSource: CelesTrak SupGP

Epoka: Sep 15, 2026, 01:42 UTC

1 45376C 20019S   26258.07131944  .00090033  00000+0  61762-3 0  2586
2 45376  53.0358 303.5709 0005046  30.8481  52.5053 15.73966498    16

Śledź STARLINK-1304 w czasie rzeczywistym z AllMySat

Download on the App Store